User: anonymous   Login
Location: Chin
(49.7667°N, 112.4500°W)
Time: 10:23:44
(UTC+00:00)
Language:

Envisat - Orbit

View from above orbital plane
View from above orbital plane
View from above satellite
View from above satellite

Ground track
Ground track

The orbit data is extracted from the following two-line orbital elements,

1 27386U 02009A   22024.91031903  .00000070  00000-0  36671-4 0  9997
2 27386  98.1689  12.8708 0001188  86.8163 294.7015 14.38070888 42837
Epoch (UTC): 24 January 2022 21:50:51
Eccentricity: 0.0001188
inclination: 98.1689°
perigee height: 764 km
apogee height: 766 km
right ascension of ascending node: 12.8708°
argument of perigee: 86.8163°
revolutions per day: 14.38070888
mean anomaly at epoch: 294.7015°
orbit number at epoch: 4283

The dashed part of the orbit path shows where the satellite is in the earth's shadow,  

DLR